{"data":{"norad_id":65663,"intl_designator":"2025-211M","name":"STARLINK-35190","alt_names":[],"object_type":"PAYLOAD","status":"ACTIVE","operator":null,"country":"US","launch_date":"2025-09-19","launch_site_code":"AFWTR","launch_vehicle":null,"mission":null,"orbit_class":"UNKNOWN","rcs_meters":null,"size_class":null,"mass_kg":null,"dimensions":null,"purposes":["comms"],"wikipedia_slug":null,"has_3d_model":false,"image_url":null,"decayed_at":null,"tle_current":{"epoch":"2026-09-20T08:31:38.704512Z","epoch_age_seconds":121003,"freshness":"FRESH","line1":"1 65663U 25211M   26263.35530908  .00007085  00000+0  22157-3 0  9998","line2":"2 65663  97.2847 303.6237 0000959 107.0675 253.0673 15.33444754 56500","mean_motion":15.33444754,"eccentricity":9.59e-5,"inclination_deg":97.2847,"raan_deg":303.6237,"arg_perigee_deg":107.0675,"mean_anomaly_deg":253.0673,"bstar":0.00022157,"rev_number":5650,"period_min":93.906219721562,"perigee_km":464.88759740223,"apogee_km":466.20021540008,"semimajor_km":6843.6809064012,"source":"CELESTRAK","updated_at":"2026-09-21T09:00:35.681363Z"}}}